User: anonymous   Login
Location: State Camp
(41.2367°N, 77.7828°W)
Time: 19:45:40
(UTC-05:00)
Language:

ADEOS Rocket - Orbit

View from above orbital plane
View from above orbital plane
View from above satellite
View from above satellite

Ground track
Ground track

The orbit data is extracted from the following two-line orbital elements,

1 24279U 96046C   17015.88952883 +.00000001 +00000-0 +49083-4 0  9993
2 24279 098.7330 338.8102 0299593 317.1140 062.3112 13.47073718003464
Epoch (UTC): 15 January 2017 21:20:55
Eccentricity: 0.0299593
inclination: 98.7330°
perigee height: 859 km
apogee height: 1306 km
right ascension of ascending node: 338.8102°
argument of perigee: 317.1140°
revolutions per day: 13.47073718
mean anomaly at epoch: 62.3112°
orbit number at epoch: 346

The dashed part of the orbit path shows where the satellite is in the earth's shadow,  

DLR